Simultaneous Nadir Overpasses (SNOs) Predictions

Prediction of SNOs between GOES-14 and AQUA Satellite Orbit:

Table of predicted SNOs for the next 14.0 days since TLE Epoch: 4/8/2022
Index Date Time (GOES-14) GOES-14 Lat,Lon AQUA Lat,Lon Distance(km) Time Diff (sec)
1 04/10/2022 20:21:17 -0.13,-104.47 0.54,-101.37 352.67 80
2 04/11/2022 08:42:29 0.12,-104.48 0.58,-106.51 231.84 80
3 04/13/2022 08:32:47 0.12,-104.48 -0.08,-103.51 110.32 80
4 04/13/2022 20:54:09 -0.11,-104.50 -0.99,-108.69 476.42 80
5 04/15/2022 08:20:24 0.13,-104.48 -0.71,-100.49 452.86 80
6 04/15/2022 20:41:46 -0.12,-104.49 -0.35,-105.68 134.47 80
7 04/17/2022 20:26:42 -0.12,-104.49 0.25,-102.66 207.29 80
8 04/18/2022 08:47:55 0.11,-104.45 0.80,-107.81 381.40 80
9 04/20/2022 08:35:31 0.11,-104.44 0.18,-104.79 39.33 80
10 04/22/2022 08:25:47 0.11,-104.43 -0.46,-101.78 302.46 80
